Location: Florence
(33.9745°N, 118.2481°W)
Time: 20:36:08
(UTC+00:00)

GP-B - Pass Details

Date: 23 March 2023
Orbit: 628 x 631 km, 89.8° (Epoch: 05 June)

Event Time Altitude Azimuth Distance (km) Brightness Sun altitude
Rises 13:10:34 0° 353° (N) 2,930 6.5 -9.6°
Reaches altitude 10° 13:12:53 10° 347° (NNW) 2,018 5.6 -9.1°
Maximum altitude 13:17:03 41° 277° (W) 913 3.5 -8.2°
Drops below altitude 10° 13:21:12 10° 207° (SSW) 2,006 5.4 -7.4°
Sets 13:23:29 0° 200° (SSW) 2,910 6.2 -6.9°
